Showing default

UM5-EOSAT, 60555

Orbit data source: Space-Track

UM5-EOSAT, 60555 is a Moroccan payload satellite in SSO that was launched on Fri, 16 Aug 2024 UTC via an FALCON 9 launch vehicle from the Air Force Western Test Range (AFWTR). Payload-class satellites include a variety of spacecraft equipped with specific instruments for various scientific and technological missions. These include communications satellites like Starlink; space stations such as the ISS; scientific satellites like the Hubble; Earth observation satellites from companies like Planet Labs, Umbra, and HawkEye 360; GPS; miniature CubeSats for education and research; and military/defense satellites.

Loading next visibility...
Identifier
60555, 2024-149CR
Orbit
SSO
Country
Flag of MAMA
Related business
Manufacturer
UM5R
Mission
Operational Amateur Imaging
Bus & Motor
CUBESAT 3U, Unknown motor
Mass
5 kg wet, 5 kg dry
Launch date (UTC)
2024-08-16 (2 years ago)
Launch vehicle
FALCON 9
Launch site
Air Force Western Test Range (AFWTR)
Object type
Payload
Rocket body
Debris
Shape & HBR
Box, 0.1 m
Radar Cross Section
0.080 m², Medium (>0.1 m² and < 1m²)

Expand to show TLE details & history
Last TLE update: 2 days ago

TLE from 2 days ago
0 UM5-EOSAT
1 60555U 24149CR  26172.77002781  .00003348  00000-0  26288-3 0  9998
2 60555  97.6723 251.4521 0008956 101.1074 259.1158 15.01562808100906
Epoch: 2026-06-21T18:28Z
TLE epoch observation values (Epoch: 2026-06-21T18:28:50.402Z)
Latitude
-0.00002°
Longitude
64.27656°
Altitude
566.314 km
Speed
7.577 km/s
True Right ascension
16h 45m 48s
True Declination
0° 00' 00"
Sunlit
Object was in full shadow at epoch
Visualization orbit readout
Latitude
Unknown
Longitude
Unknown
Altitude
Unknown
Speed
Unknown
Apparent Right ascension
Unknown
Apparent Declination
Unknown
Sunlit
N/A
Visualization observer readout
Local Sidereal Time
12:20:09
Azimuth
Unknown
Elevation
Unknown
Doppler factor
Unknown
Orbital elements
Apogee altitude
565.292 km
Perigee altitude
552.866 km
Semi-major axis
6,937.216 km
Eccentricity
0.0009
Inclination
97.6723°
RAAN
251.4521°
Arg. of periapsis
101.1074°
True anomaly
259.01504°
Mean anomaly
259.1158°
Eccentric anomaly
259.06542°
Mean motion
3.75634 °/min
Orbital period
95.84 mins
BSTAR
0.00026288
Loading maneuver chart data...
Computing Atmospheric mass density...
Loading historical data...
Loading historical data...
Loading historical data...
Loading historical data...
Loading historical data...
Loading historical data...
Loading historical data...

Documentation

Showing up to 5 results
|